Flag for Norway Weather past 2 weeks in Hammerfest, Norway

Now
36 °F

Passing clouds.


Feels Like: 25 °F
Forecast: 33 / 35 °F
Wind: 18 mph from South

Location: Hammerfest

Current Time: Mar 2, 2015 at 6:03:45 PM

Latest Report: Mar 2, 2015 at 4:50 PM


Visibility: N/A

Pressure: 29.12 "Hg

Humidity: 75%

Dew point: 28 °F

Location of HammerfestLocation

Historic Weather in Hammerfest — Graph

°F

Hammerfest temperature yesterday

Maximum temperature yesterday: 37 °F (at 3:50 PM)
Minimum temperature yesterday: 34 °F (at 12:50 AM)
Average temperature yesterday: 36 °F

Past Weeks' High & Low Weather Summary

 TemperatureHumidityPressure
High37 °F (Feb 27, 1:50 PM)100% (Feb 18, 10:50 AM)30.01 "Hg (Feb 18, 10:50 AM)
Low19 °F (Feb 23, 8:50 AM)50% (Feb 23, 2:50 PM)28.80 "Hg (Feb 21, 2:50 AM)
Average31 °F77%29.28 "Hg
* Reported Feb 15 4:50 PM — Mar 2 4:50 PM, Hammerfest, Weather by CustomWeather, © 2015

Note: Actual official high and low records may vary slightly from our data, if they occured in-between our weather recording intervals... More about our weather records

Advertising

Hammerfest weather history for previous 24 hours

 ConditionsComfort  
Time TempWeatherWind HumidityBarometerVisibility
4:50 PM
Mon, Mar 2
36 °FPassing clouds.18 mph75%29.12 "HgN/A
3:50 PM36 °FScattered clouds.22 mph75%29.09 "HgN/A
2:50 PM36 °FScattered clouds.22 mph75%29.09 "HgN/A
1:50 PM36 °FPassing clouds.21 mph75%29.09 "HgN/A
12:50 PM36 °FStrong thunderstorms. Passing clouds.26 mph75%29.06 "HgN/A
11:50 AM36 °FPassing clouds.29 mph75%29.06 "HgN/A
10:50 AM37 °FScattered clouds.25 mph65%29.03 "HgN/A
9:50 AM36 °FPassing clouds.22 mph75%29.00 "HgN/A
8:50 AM36 °FPassing clouds.17 mph75%29.00 "HgN/A
7:50 AM34 °FPassing clouds.26 mph75%29.00 "HgN/A
6:50 AM34 °FPassing clouds.16 mph75%29.00 "HgN/A
5:50 AM34 °FPassing clouds.25 mph75%28.97 "HgN/A
4:50 AM34 °FPassing clouds.18 mph75%29.00 "HgN/A
3:50 AM34 °FPassing clouds.25 mph70%29.00 "HgN/A
2:50 AM34 °FPassing clouds.28 mph70%29.00 "HgN/A
1:50 AM34 °FPassing clouds.26 mph70%29.00 "HgN/A
12:50 AM36 °FPassing clouds.17 mph70%29.00 "HgN/A
11:50 PM
Sun, Mar 1
36 °FPassing clouds.21 mph75%29.00 "HgN/A
10:50 PM37 °FPassing clouds.17 mph70%29.00 "HgN/A
9:50 PM37 °FPassing clouds.17 mph75%29.03 "HgN/A
8:50 PM37 °FPassing clouds.17 mph75%29.00 "HgN/A
7:50 PM37 °FPassing clouds.14 mph75%29.03 "HgN/A
6:50 PM37 °FPassing clouds.18 mph75%29.03 "HgN/A
Weather by CustomWeather, © 2015

See weather overviewHow to use our weather pages